Temperature
13 14 14 15 12 11 12 13 15 16 17 19 19 19 17 17 17 17 16 17 17 17 17 17 17 17 17 17 17 17 17 17 17 17 17 17 17 17 17 17 17 17 16 16 16 16 16 16 16
13 13 14 14 10 11 12 13 15 16 18 19 19 19 17 16 16 16 16 16 17 17 17 17 17 17 17 17 17 17 17 17 17 17 17 17 17 17 17 17 17 16 16 16 16 16 16 16 16
13 13 14 10 10 11 13 14 15 17 18 19 18 18 17 16 16 16 16 16 17 17 17 17 17 17 17 17 17 17 17 17 17 17 17 17 16 16 16 17 16 16 16 16 16 16 16 16 15
13 13 13 10 11 12 14 15 15 16 18 18 18 16 16 16 16 16 16 16 17 17 17 17 16 17 17 17 17 17 17 16 16 16 16 16 16 16 16 16 16 16 16 16 16 16 16 15 15
13 13 10 10 11 13 14 15 16 15 16 17 17 15 15 15 16 16 16 16 17 17 16 16 16 16 17 16 16 16 16 16 16 16 16 16 16 16 16 16 16 16 16 16 16 16 16 15 15
12 10 9 10 11 13 13 15 16 15 15 16 16 14 14 15 15 15 16 16 16 16 16 16 16 16 16 16 16 16 16 16 16 16 16 16 16 16 16 16 16 16 16 16 16 16 16 15 15
11 8 9 11 11 13 14 15 15 14 14 16 16 13 13 14 15 15 15 15 15 16 16 16 16 16 16 16 16 16 16 16 16 16 16 16 16 16 16 16 16 16 16 16 16 15 15 15 15
11 9 10 11 11 12 14 15 15 15 15 16 16 13 13 14 14 15 15 15 15 15 15 15 15 16 16 16 16 16 16 16 16 16 16 16 16 16 16 16 16 16 16 15 15 15 15 15 15
11 8 9 11 12 12 13 13 14 14 15 14 14 14 14 14 14 14 14 14 14 14 15 15 15 15 15 15 15 15 15 15 16 16 16 16 16 16 16 16 15 15 15 15 15 15 15 15 15
10 8 10 11 11 11 12 12 13 13 13 13 13 14 13 13 14 14 14 14 14 14 14 14 14 14 15 15 15 15 15 15 15 15 15 15 15 15 15 15 15 15 15 15 15 15 15 15 15
10 9 10 11 12 12 11 12 12 12 11 12 12 13 13 13 13 13 13 13 14 14 14 14 14 14 14 14 14 15 15 15 15 15 15 15 15 15 15 15 15 15 15 15 15 15 15 15 15
9 10 10 11 12 12 11 11 11 11 12 12 13 13 13 13 13 13 13 13 13 13 13 13 13 14 14 14 14 14 14 15 15 15 15 15 15 15 15 15 15 15 15 15 15 15 15 15 14
9 9 10 11 11 11 11 11 11 11 12 12 12 12 12 12 13 13 12 12 12 13 13 13 13 13 13 13 14 14 14 14 14 14 15 15 15 14 14 14 14 15 15 14 14 14 14 14 14
9 9 10 10 11 11 10 10 10 11 12 12 12 12 12 12 12 12 12 12 12 12 12 12 12 13 13 13 13 13 13 14 14 14 14 14 14 14 14 14 14 14 14 14 14 14 14 14 14
10 9 9 10 10 10 10 9 9 12 12 12 12 12 12 12 12 12 12 12 12 12 12 12 12 12 12 13 13 13 13 13 13 14 14 14 14 14 14 14 14 14 14 14 14 14 14 14 14
9 8 8 9 10 10 10 9 9 11 11 11 11 11 11 11 11 11 11 11 11 11 12 12 12 12 12 12 12 12 12 13 13 13 13 13 13 13 13 13 13 14 14 14 14 14 13 13 13
7 7 8 9 10 10 9 8 9 11 11 10 11 11 11 11 11 11 11 11 11 11 11 11 12 12 12 12 12 12 12 12 12 13 13 13 13 13 13 13 13 13 13 13 13 13 13 13 13
7 7 8 8 9 9 8 8 9 10 10 10 10 10 10 10 10 10 10 10 10 10 11 11 11 11 11 11 11 11 12 12 12 12 12 12 13 13 13 13 13 13 13 13 13 13 13 13 13
8 7 7 8 9 9 8 8 9 10 9 9 9 9 9 9 10 10 10 10 10 10 10 10 11 11 11 11 11 11 11 11 11 12 12 12 12 12 12 12 12 12 12 13 13 13 12 12 12
8 7 7 8 9 9 8 8 8 9 9 9 9 9 9 9 9 9 9 9 9 10 10 10 10 10 10 10 10 10 11 11 11 11 11 11 12 12 12 12 12 12 12 12 12 12 12 12 12
8 7 7 8 8 8 8 7 8 8 9 9 9 9 9 9 9 9 9 9 9 9 9 9 9 10 10 10 10 10 10 10 10 11 11 11 11 11 11 11 11 11 11 11 12 11 11 11 11
7 8 8 8 7 6 7 6 7 8 8 8 8 8 8 8 8 8 8 8 9 9 9 9 9 9 9 9 9 9 9 10 10 10 10 10 11 11 11 11 11 11 11 11 11 11 11 11 11
8 8 8 8 7 6 7 6 7 7 7 7 7 8 8 8 8 8 8 8 8 8 8 8 9 9 9 9 9 9 9 9 9 9 10 10 10 10 10 10 10 10 10 11 10 10 10 10 10
8 7 7 6 6 6 7 6 6 6 7 7 7 8 8 8 8 8 8 8 8 8 8 8 8 8 8 8 8 8 9 9 9 9 9 9 10 10 10 10 10 10 10 10 10 10 10 10 10
7 6 5 6 6 6 7 6 6 7 7 7 7 7 8 7 8 8 8 8 8 8 8 8 8 8 8 8 8 8 8 8 8 9 9 9 9 9 9 9 9 9 9 9 9 9 9 9 9
7 6 6 6 6 6 6 6 7 8 8 8 8 8 7 7 7 7 7 7 7 7 7 7 7 7 7 8 8 8 8 8 8 8 8 8 8 9 9 9 9 9 9 9 9 9 9 8 8
7 6 6 5 5 5 6 6 7 8 7 7 7 7 7 7 7 7 7 7 7 7 7 7 7 7 7 7 7 7 7 7 7 8 8 8 8 8 8 8 8 8 8 8 8 8 8 8 8
7 6 5 5 6 6 6 6 7 7 6 6 6 6 7 7 7 7 7 7 7 7 7 7 7 7 7 7 7 7 7 7 7 7 7 8 8 8 8 8 8 8 8 8 8 8 8 7 7
6 6 5 5 5 5 6 7 7 7 7 6 6 7 7 7 7 7 6 6 6 7 7 6 6 6 6 7 7 7 7 7 7 7 7 7 7 7 7 7 7 7 8 8 7 7 7 7 7
7 6 5 5 5 5 4 6 7 7 7 6 6 7 7 7 7 6 6 6 6 6 6 6 6 6 6 6 6 6 6 6 7 7 6 6 6 7 7 7 7 7 7 7 7 7 7 6 6
Wind_Speed
5 5 3 4 5 3 5 6 4 2 3 3 1 5 6 4 4 6 3 1 4 5 6 9 11 11 13 13 13 13 12 13 12 13 12 13 13 13 13 13 12 12 12 12 12 12 12 12 11
3 2 4 4 5 4 5 5 5 5 4 1 2 4 6 5 4 6 1 1 5 5 6 7 10 11 11 13 13 13 12 12 12 12 12 12 13 13 12 13 12 12 11 11 11 12 11 11 11
2 2 4 4 5 7 6 5 8 5 3 1 2 4 5 4 3 3 1 3 5 5 5 6 9 11 11 11 12 13 12 12 11 11 11 12 12 12 12 12 12 12 11 11 11 11 11 10 9
3 4 3 3 6 6 5 3 3 2 2 2 4 5 4 3 2 3 3 5 6 4 4 6 8 9 10 10 11 12 12 12 11 12 12 12 12 12 12 12 12 12 11 11 11 11 10 9 8
4 4 3 2 5 4 4 4 1 1 0 2 4 5 3 5 4 5 5 6 6 3 3 4 6 8 8 9 10 11 12 12 12 12 12 12 12 12 12 12 12 12 12 11 11 11 10 9 7
3 4 4 5 4 3 3 4 2 1 1 2 4 4 1 3 4 4 5 5 4 4 3 3 5 5 6 8 9 10 11 12 12 12 12 12 12 12 12 13 12 12 12 11 11 11 10 9 7
4 4 5 5 3 2 3 2 1 1 1 1 2 4 2 2 2 3 5 5 4 4 3 2 2 4 5 5 7 9 10 11 12 12 12 12 12 13 13 13 13 12 12 12 12 12 10 9 7
4 4 2 2 3 3 3 1 1 1 1 2 3 6 3 3 1 4 6 6 5 3 2 2 1 2 2 3 5 7 9 10 11 12 12 12 12 13 13 13 13 13 13 13 12 12 11 9 8
4 3 2 2 3 2 3 2 3 2 3 4 3 3 4 3 2 5 5 5 4 3 2 2 1 1 1 2 3 4 6 8 9 10 11 11 10 11 12 13 14 13 13 13 13 12 11 10 8
4 3 3 2 1 1 2 2 2 3 4 3 4 3 2 3 4 4 3 2 2 2 2 1 1 1 1 2 2 2 4 5 6 7 9 9 9 10 10 12 14 14 14 13 13 12 11 9 7
3 4 3 2 2 1 2 4 3 3 2 1 1 0 1 2 2 2 1 1 1 2 2 2 1 2 1 1 2 2 3 3 5 6 8 8 8 8 8 8 10 11 12 10 10 10 9 8 7
2 0 2 2 2 1 1 2 3 1 3 3 2 2 0 1 1 1 1 2 2 2 3 2 2 1 1 1 2 2 2 3 3 5 7 7 5 4 5 6 8 8 9 8 7 7 7 8 8
2 1 0 1 2 1 2 1 1 3 5 3 2 1 1 2 2 3 3 2 2 3 3 3 2 2 2 1 2 2 3 3 4 5 7 7 5 5 5 5 6 7 8 8 6 6 6 6 6
2 1 1 2 1 1 0 3 1 5 4 2 2 2 3 3 3 3 2 2 2 3 3 3 3 2 2 2 2 2 3 3 4 4 6 8 7 5 5 5 5 6 7 8 8 7 6 5 5
2 2 3 2 2 1 1 4 4 7 3 3 3 3 4 3 3 3 3 2 3 3 3 3 3 2 2 3 3 2 3 3 3 4 6 7 7 6 6 5 5 6 8 7 6 6 5 4 4
2 3 2 3 2 1 3 6 6 5 2 4 5 4 3 3 2 2 2 1 2 1 2 3 3 3 3 2 2 2 2 2 3 4 5 7 7 7 5 5 5 6 6 5 5 4 5 4 4
3 1 1 3 2 2 3 7 7 4 3 5 5 4 3 3 2 2 2 2 2 2 2 2 3 3 3 2 2 1 1 1 2 3 3 5 6 7 5 4 4 6 5 5 5 4 4 4 4
1 1 2 4 3 2 4 8 9 5 5 6 5 4 3 3 3 2 3 2 2 2 2 2 2 3 3 2 1 1 1 1 1 1 2 3 4 5 5 3 4 5 4 4 4 4 4 3 3
2 2 3 4 3 2 6 10 11 7 5 5 5 5 4 4 3 2 2 2 2 2 2 2 2 3 2 1 1 1 1 1 1 1 1 2 3 4 4 3 3 4 4 5 5 4 3 2 1
0 0 2 4 2 3 6 10 10 7 6 6 7 6 5 4 2 2 2 2 2 2 2 2 2 3 2 1 1 1 1 1 1 1 0 1 2 2 3 3 3 3 3 4 4 4 3 2 2
1 2 2 3 4 3 4 8 6 5 4 4 5 5 5 5 5 4 3 2 2 2 3 3 3 3 3 2 1 1 1 1 1 1 0 1 1 2 3 3 3 3 3 3 4 4 5 3 2
2 3 2 2 2 4 1 5 7 5 4 5 5 4 4 4 4 4 3 3 2 3 3 3 3 3 2 2 2 2 1 2 2 1 1 1 1 2 3 3 3 2 2 3 3 3 3 4 3
3 3 3 3 2 3 3 4 8 3 5 7 6 5 4 3 4 4 3 3 3 3 3 3 3 3 2 2 2 2 2 1 1 1 1 1 1 2 3 3 3 3 2 3 2 2 2 3 3
2 3 3 1 1 3 5 5 7 4 6 6 5 4 4 4 3 3 2 2 2 2 2 2 2 2 1 1 1 2 2 1 1 1 2 1 1 1 2 3 3 2 2 2 3 2 2 2 3
3 4 3 4 2 5 3 4 8 7 6 5 5 5 4 4 3 2 2 2 2 2 2 2 1 2 1 1 1 2 2 2 3 3 2 2 1 1 1 1 2 2 2 2 2 2 2 2 3
1 3 3 2 4 5 3 6 7 5 3 2 3 3 3 3 2 3 3 3 2 2 2 1 1 1 1 1 1 1 1 2 1 2 2 2 2 2 2 1 2 2 1 1 2 2 1 1 2
1 1 3 2 2 4 6 6 7 1 1 1 2 2 3 3 3 3 2 2 2 2 2 2 1 1 1 1 1 1 1 1 1 1 1 1 1 1 1 1 1 1 1 2 2 2 1 2 1
2 2 2 2 2 4 6 5 5 5 5 4 4 5 5 5 4 3 2 2 2 2 1 1 1 1 1 0 1 1 1 1 2 2 2 1 1 1 2 2 2 2 2 2 2 1 1 1 1
3 2 3 2 3 3 5 7 5 6 6 6 7 6 6 6 5 4 3 2 1 1 1 0 0 0 1 1 2 2 2 2 2 2 1 1 1 2 2 2 2 2 2 2 2 1 1 1 1
5 6 5 3 4 4 4 8 5 5 5 5 6 6 5 5 5 4 3 2 1 1 1 1 1 1 1 1 2 2 2 2 2 2 1 1 1 1 1 2 2 2 2 2 2 2 1 2 2
Wind_Direction
329 346 64 62 70 86 219 233 236 233 217 226 191 116 116 95 118 149 206 197 119 138 156 159 160 157 157 155 153 151 151 153 154 154 150 147 145 143 140 138 136 135 132 129 126 125 121 116 113
356 20 63 72 117 177 241 233 221 230 227 189 93 94 83 78 81 107 83 100 120 130 142 153 162 160 159 160 158 157 156 158 159 160 158 156 154 152 150 146 145 143 139 134 132 129 126 122 119
360 70 96 106 160 189 212 222 212 234 279 198 74 60 90 108 108 119 158 123 104 112 128 148 161 163 162 164 165 163 162 164 165 165 164 163 162 160 158 154 151 149 144 140 137 134 131 129 127
64 62 72 129 209 216 210 229 203 210 324 28 108 64 53 32 108 139 126 106 94 91 108 139 155 161 164 165 169 170 168 169 170 170 170 169 168 166 163 160 155 153 151 148 145 142 139 139 139
65 94 122 203 226 244 249 276 297 133 28 16 85 86 39 352 52 82 85 90 94 87 90 131 148 157 164 170 174 177 177 176 175 176 177 176 174 171 168 164 161 160 161 159 156 154 151 153 154
73 91 139 204 221 250 277 297 331 353 360 14 71 85 84 339 46 56 69 79 103 110 90 121 140 152 165 177 183 183 185 185 183 184 185 184 181 179 175 170 168 169 169 167 165 163 163 167 169
122 124 166 181 194 249 275 300 146 170 54 347 100 105 138 333 17 52 56 56 63 77 84 90 138 146 160 179 191 194 194 192 191 189 188 187 186 184 181 179 176 177 177 174 172 172 174 178 181
134 118 153 180 171 223 292 351 73 134 205 345 68 123 166 237 3 55 49 45 44 48 58 53 73 125 151 181 193 200 202 199 195 192 190 189 188 185 185 185 185 183 183 180 180 181 183 186 190
107 94 172 192 176 226 326 17 351 354 60 30 44 132 176 175 65 53 41 29 26 23 9 14 14 4 193 190 198 199 205 203 196 193 191 187 185 185 187 190 190 190 188 187 187 188 189 190 196
99 149 201 231 200 225 347 15 349 32 31 27 30 30 71 87 75 68 53 26 6 348 333 340 336 308 263 226 221 214 209 205 196 191 188 187 185 187 191 194 194 195 194 193 194 193 193 190 195
120 167 198 306 308 352 1 350 353 88 44 174 165 198 30 58 59 70 37 317 284 291 313 319 311 315 278 255 221 219 213 206 199 192 186 183 183 188 191 190 196 199 199 197 197 194 191 190 195
108 107 186 289 338 10 346 346 3 33 209 222 212 198 178 3 323 270 261 278 291 303 299 298 288 293 287 259 238 214 206 202 200 201 192 180 178 183 190 192 193 193 195 193 192 190 190 193 197
123 126 13 300 351 337 22 347 322 280 261 269 294 347 293 272 278 269 259 268 283 298 304 301 287 262 268 264 251 223 216 208 203 199 198 188 184 190 191 192 190 191 191 191 190 190 192 197 202
154 157 292 282 287 311 52 304 321 269 268 292 297 276 268 272 273 278 271 269 283 291 294 297 300 277 262 235 234 238 226 215 203 202 202 197 193 191 192 192 191 192 193 195 194 193 195 201 202
91 62 358 287 234 239 105 305 245 257 268 270 269 264 271 277 278 274 267 261 268 285 299 300 299 305 279 251 241 235 229 218 209 210 207 200 196 192 190 191 195 198 195 190 189 192 193 203 209
56 55 350 288 217 203 139 265 266 265 230 257 262 264 264 279 276 277 281 293 306 309 321 319 322 325 297 267 255 251 231 221 220 217 211 204 197 188 181 191 199 198 191 188 189 190 194 205 210
42 72 245 284 229 176 180 251 272 263 226 250 257 255 252 279 298 302 296 297 316 314 310 319 323 321 304 280 266 258 246 236 237 221 214 205 195 188 180 195 197 187 187 191 196 196 194 202 212
191 225 254 249 254 204 231 259 274 264 234 244 246 242 246 260 273 286 289 299 317 317 312 314 319 319 312 310 318 309 284 276 299 222 217 213 198 190 181 190 193 184 184 190 193 192 197 201 210
167 190 258 261 255 236 247 261 269 266 244 240 237 233 237 243 268 296 300 305 327 330 333 328 317 313 327 326 306 269 260 277 288 262 215 211 196 186 181 189 188 187 191 195 189 188 190 200 183
103 261 288 300 295 256 265 268 264 252 233 224 222 225 226 239 265 290 304 317 309 298 306 310 296 293 290 272 266 236 244 252 241 241 278 210 169 174 181 174 180 186 187 189 186 183 184 188 168
327 227 252 276 324 314 311 297 269 269 235 229 220 218 218 221 231 251 269 283 289 285 285 287 285 285 285 279 283 4 28 345 311 276 277 280 152 162 151 157 169 178 176 188 191 188 186 192 199
289 262 261 284 340 293 281 289 283 268 256 243 233 230 230 232 228 234 245 260 266 270 277 281 285 285 278 253 206 190 200 232 244 231 220 243 111 144 143 141 149 166 170 171 185 187 187 183 195
251 286 281 267 252 293 242 235 286 284 256 251 238 234 234 233 223 226 234 237 246 266 282 285 289 283 268 244 209 195 204 234 244 202 180 195 156 136 136 140 150 163 168 163 160 162 169 184 192
296 351 348 42 82 281 235 204 281 251 241 251 239 233 235 231 227 227 239 247 263 281 291 291 297 292 272 228 207 199 189 181 180 211 196 192 158 148 136 134 145 159 171 173 174 166 169 192 195
45 56 23 357 329 261 247 210 255 260 248 228 226 225 230 229 226 230 240 253 272 286 288 289 281 281 265 218 197 196 184 177 190 206 197 180 167 172 163 147 149 158 162 160 153 155 176 196 196
292 131 152 232 262 289 295 241 257 283 269 221 200 200 205 222 229 229 236 238 253 261 260 279 270 268 253 209 199 186 169 164 187 191 182 176 190 194 171 158 146 134 137 142 141 151 179 179 188
153 190 180 175 287 280 275 280 297 288 325 236 219 214 233 239 240 239 245 245 255 261 260 250 249 272 279 215 161 134 125 119 123 111 109 145 169 148 131 141 136 129 140 147 151 156 175 167 181
158 154 101 160 269 284 289 273 259 264 259 254 247 243 246 251 249 242 242 237 254 249 252 268 249 258 286 99 102 90 89 114 119 108 112 128 130 135 143 139 129 134 138 134 133 151 172 173 205
171 176 174 190 207 226 285 276 234 238 237 235 239 238 237 241 238 234 238 232 238 250 195 128 289 37 52 65 78 80 76 83 97 105 107 118 122 127 132 138 138 137 135 134 137 152 162 170 213
191 195 170 187 241 219 244 271 273 254 241 227 238 242 242 240 232 224 222 221 219 230 195 169 165 137 124 102 93 91 87 86 85 84 80 107 126 133 146 143 137 137 138 137 144 150 161 170 195
Height
1504 1506 1508 1511 1516 1525 1524 1515 1508 1504 1503 1501 1500 1500 1501 1505 1508 1516 1514 1512 1513 1514 1516 1517 1519 1520 1522 1523 1524 1526 1527 1529 1530 1531 1532 1534 1535 1536 1536 1537 1538 1539 1540 1540 1541 1541 1542 1542 1543
1504 1506 1509 1510 1519 1528 1521 1510 1505 1501 1499 1499 1500 1500 1501 1505 1507 1509 1510 1512 1513 1514 1515 1517 1518 1520 1521 1523 1524 1526 1527 1528 1530 1531 1532 1534 1535 1536 1536 1537 1538 1539 1540 1541 1541 1542 1542 1543 1544
1503 1505 1508 1511 1518 1519 1513 1504 1500 1498 1498 1499 1500 1501 1503 1506 1508 1509 1510 1512 1513 1514 1515 1516 1518 1520 1521 1522 1524 1525 1527 1528 1529 1531 1532 1533 1535 1536 1537 1537 1538 1539 1540 1541 1541 1542 1543 1544 1544
1503 1506 1508 1513 1512 1508 1504 1500 1498 1498 1498 1498 1499 1502 1505 1508 1508 1509 1510 1512 1513 1514 1515 1516 1517 1519 1520 1522 1523 1524 1526 1527 1529 1530 1532 1533 1534 1535 1536 1537 1538 1539 1540 1541 1541 1542 1543 1544 1544
1502 1504 1510 1513 1509 1504 1500 1498 1498 1498 1498 1498 1499 1502 1506 1508 1508 1509 1510 1511 1512 1513 1514 1515 1517 1518 1519 1521 1522 1523 1525 1526 1528 1529 1531 1532 1533 1535 1536 1537 1538 1539 1540 1540 1541 1542 1543 1544 1544
1501 1503 1512 1513 1508 1502 1500 1498 1498 1498 1498 1498 1499 1502 1506 1508 1508 1509 1510 1511 1512 1512 1513 1514 1516 1517 1518 1519 1521 1522 1523 1525 1526 1528 1529 1531 1532 1533 1535 1536 1537 1538 1539 1540 1541 1542 1542 1543 1544
1501 1505 1508 1507 1506 1504 1500 1499 1499 1498 1498 1499 1499 1503 1506 1507 1508 1509 1509 1510 1511 1511 1512 1513 1514 1516 1517 1518 1519 1520 1522 1523 1525 1526 1528 1529 1531 1532 1533 1535 1536 1537 1538 1539 1540 1541 1542 1542 1543
1499 1503 1504 1505 1505 1503 1499 1498 1498 1498 1498 1499 1500 1502 1505 1507 1507 1508 1509 1509 1510 1510 1511 1512 1513 1514 1515 1516 1518 1519 1520 1521 1523 1524 1526 1527 1529 1530 1532 1533 1534 1536 1537 1538 1539 1540 1541 1541 1542
1499 1506 1507 1505 1503 1501 1499 1498 1499 1498 1498 1499 1500 1502 1503 1505 1506 1507 1507 1508 1508 1509 1510 1510 1511 1512 1513 1514 1515 1517 1518 1519 1521 1522 1524 1525 1527 1528 1530 1531 1533 1534 1535 1536 1537 1538 1539 1540 1541
1498 1506 1504 1502 1500 1500 1499 1499 1499 1499 1499 1500 1501 1502 1503 1504 1505 1505 1505 1506 1506 1507 1508 1509 1509 1510 1511 1512 1513 1514 1516 1517 1518 1520 1521 1523 1524 1526 1528 1529 1530 1532 1533 1534 1535 1537 1538 1539 1539
1498 1502 1501 1500 1499 1499 1499 1499 1499 1499 1501 1500 1501 1501 1502 1503 1503 1503 1504 1504 1505 1505 1506 1506 1507 1508 1509 1509 1510 1511 1513 1514 1515 1517 1519 1520 1522 1523 1525 1526 1528 1529 1530 1532 1533 1534 1535 1536 1537
1499 1500 1500 1500 1499 1499 1499 1499 1499 1499 1500 1500 1500 1500 1501 1501 1501 1502 1502 1502 1503 1503 1503 1504 1504 1505 1506 1507 1507 1508 1509 1511 1512 1514 1515 1517 1518 1520 1522 1523 1524 1526 1527 1529 1530 1532 1533 1534 1535
1499 1500 1500 1500 1499 1499 1499 1499 1500 1499 1499 1499 1499 1499 1499 1500 1500 1500 1500 1500 1500 1500 1500 1500 1501 1502 1503 1503 1504 1505 1506 1507 1509 1510 1512 1513 1515 1516 1518 1519 1521 1523 1524 1526 1527 1529 1530 1531 1532
1499 1500 1500 1500 1499 1499 1499 1499 1500 1497 1497 1498 1497 1497 1498 1498 1497 1497 1497 1497 1497 1497 1497 1497 1498 1498 1499 1500 1500 1501 1502 1504 1505 1506 1508 1509 1511 1513 1514 1516 1517 1519 1521 1523 1524 1526 1527 1528 1529
1499 1501 1501 1500 1499 1499 1500 1501 1499 1496 1496 1496 1496 1496 1496 1495 1495 1495 1494 1494 1494 1494 1494 1494 1495 1495 1495 1496 1497 1497 1498 1499 1501 1502 1504 1505 1507 1509 1510 1512 1514 1515 1517 1519 1521 1522 1524 1525 1526
1501 1504 1506 1501 1499 1499 1503 1503 1496 1494 1494 1494 1493 1493 1493 1493 1493 1492 1492 1491 1491 1491 1491 1491 1492 1492 1492 1492 1493 1494 1495 1496 1497 1498 1500 1501 1503 1504 1506 1508 1510 1512 1513 1515 1517 1518 1520 1521 1522
1505 1509 1507 1503 1499 1499 1501 1500 1494 1493 1493 1492 1491 1491 1490 1490 1490 1490 1490 1489 1488 1488 1488 1488 1488 1488 1488 1489 1489 1490 1491 1492 1493 1494 1495 1497 1498 1500 1502 1504 1505 1508 1509 1511 1513 1514 1515 1517 1518
1509 1509 1506 1504 1499 1499 1500 1498 1492 1490 1490 1489 1489 1488 1488 1487 1487 1487 1487 1486 1486 1485 1485 1485 1485 1485 1485 1485 1486 1486 1487 1488 1489 1490 1491 1493 1494 1496 1498 1499 1501 1503 1505 1507 1508 1510 1511 1512 1514
1504 1506 1507 1503 1498 1499 1498 1495 1490 1487 1487 1487 1486 1486 1485 1484 1484 1484 1484 1483 1483 1483 1482 1481 1482 1482 1482 1482 1482 1482 1483 1484 1485 1486 1487 1488 1490 1491 1493 1495 1497 1499 1500 1502 1504 1505 1507 1508 1510
1504 1506 1505 1502 1498 1498 1497 1493 1487 1484 1483 1483 1483 1482 1482 1481 1481 1481 1481 1480 1480 1480 1479 1479 1478 1478 1478 1478 1478 1479 1479 1480 1481 1482 1483 1484 1485 1487 1488 1490 1492 1494 1496 1498 1499 1501 1502 1504 1505
1504 1506 1504 1503 1500 1497 1497 1493 1486 1481 1480 1480 1479 1479 1479 1478 1478 1478 1478 1477 1477 1477 1476 1476 1475 1474 1474 1475 1475 1475 1476 1476 1477 1478 1478 1480 1482 1483 1485 1486 1488 1490 1492 1493 1495 1497 1498 1499 1501
1506 1502 1501 1501 1505 1506 1502 1502 1487 1482 1479 1477 1476 1476 1476 1476 1475 1475 1475 1474 1474 1474 1473 1473 1471 1470 1470 1471 1471 1472 1472 1472 1473 1474 1475 1476 1478 1480 1481 1483 1484 1486 1488 1490 1491 1492 1494 1495 1496
1503 1501 1501 1501 1504 1506 1502 1503 1490 1482 1479 1475 1474 1474 1473 1473 1473 1473 1472 1472 1471 1471 1470 1469 1468 1467 1467 1467 1468 1468 1468 1469 1470 1471 1471 1473 1474 1476 1478 1479 1481 1483 1484 1485 1487 1488 1490 1491 1492
1502 1503 1502 1504 1507 1508 1499 1501 1492 1484 1476 1472 1471 1471 1471 1471 1471 1470 1470 1469 1468 1468 1467 1466 1465 1465 1465 1465 1465 1465 1465 1466 1467 1468 1468 1469 1470 1472 1474 1476 1477 1479 1480 1482 1483 1484 1485 1487 1488
1505 1510 1516 1513 1512 1506 1496 1497 1488 1475 1471 1469 1469 1469 1469 1469 1469 1468 1467 1467 1466 1465 1465 1464 1463 1462 1462 1462 1462 1462 1463 1463 1464 1465 1465 1466 1467 1469 1470 1472 1473 1475 1476 1478 1479 1480 1481 1482 1484
1506 1509 1516 1516 1514 1506 1496 1493 1481 1471 1468 1467 1468 1468 1468 1467 1466 1466 1465 1464 1464 1463 1462 1462 1461 1460 1460 1459 1459 1460 1460 1461 1462 1462 1463 1464 1465 1466 1467 1469 1470 1471 1472 1474 1475 1476 1477 1479 1479
1506 1509 1509 1513 1513 1509 1499 1489 1476 1470 1469 1468 1467 1467 1466 1465 1464 1464 1463 1463 1462 1461 1460 1460 1459 1458 1458 1457 1457 1457 1458 1459 1459 1460 1461 1461 1462 1463 1464 1465 1466 1467 1469 1470 1471 1472 1473 1474 1475
1505 1506 1511 1512 1511 1506 1497 1490 1480 1471 1469 1468 1466 1465 1464 1464 1463 1462 1462 1461 1460 1460 1459 1458 1458 1457 1456 1456 1456 1456 1456 1457 1458 1458 1458 1459 1460 1461 1461 1462 1463 1464 1465 1466 1467 1468 1469 1470 1470
1505 1506 1508 1512 1511 1510 1504 1488 1470 1467 1465 1465 1464 1463 1463 1462 1461 1461 1460 1459 1459 1458 1457 1457 1456 1456 1455 1455 1455 1455 1455 1456 1456 1456 1456 1457 1458 1458 1459 1459 1460 1460 1461 1462 1463 1464 1465 1466 1466
1500 1501 1505 1510 1509 1508 1507 1488 1465 1463 1461 1462 1461 1461 1460 1460 1460 1459 1458 1458 1457 1456 1456 1455 1455 1455 1454 1454 1454 1454 1454 1454 1454 1454 1454 1455 1455 1456 1456 1457 1457 1458 1458 1459 1460 1460 1461 1462 1462